Location: Kaltenbach
(49.2000°N, 7.7500°E)
Time: 13:24:07
(UTC+00:00)

STARLINK-1080 - Pass Details

Date: 24 January 2020
Orbit: 348 x 351 km, 53.0° (Epoch: 28 February)

Event Time Altitude Azimuth Distance (km) Brightness Sun altitude
Rises 17:10:08 0° 272° (W) 2,165 8.2 -9.6°
Reaches altitude 10° 17:12:13 10° 280° (W) 1,323 6.6 -9.9°
Maximum altitude 17:15:01 40° 352° (N) 543 3.5 -10.3°
Enters shadow 17:16:59 17° 57° (ENE) 999 4.3 -10.6°
